Hourly Data Report for October 16, 2016

All times are specified in Local Standard Time (LST). Add 1 hour to adjust for Daylight Saving Time where and when it is observed.

EUREKA CLIMATE
NUNAVUT

79°59'21.000" N
85°56'02.000" W
10.00 m
2401199
71613
NEK

Download Data

Hourly Data (October 2016)
Hourly Data Report for October 16, 2016
Temp Definition
°C
Dew Point Temp Definition
°C
Rel Hum Definition
%
Wind Dir Definition
10's deg

Wind Spd Definition
km/h
Visibility Definition
km
Stn Press Definition
kPa
Hmdx Definition


Wind Chill Definition


Weather Definition


TIME
00:00 -20.3 -21.9 87 13 2   100.93   -22 LegendNANA
01:00 -19.1 -20.6 87 10 2   100.96   -21 LegendNANA
02:00 -19.3 -20.9 87 3 1   100.97   -20 LegendNANA
03:00 -18.4 -19.9 88 6 1   100.98   -19 LegendNANA
04:00 -17.3 -18.6 89 10 1   100.99   -18 LegendNANA
05:00 -16.4 -17.7 90 12 1   100.99   -17 LegendNANA
06:00 -16.2 -17.4 90 12 2   101.02   -18 LegendNANA
07:00 -16.4 -17.6 90 12 2   101.04   -18 LegendNANA
08:00 -16.6 -17.9 90 13 2   101.04   -18 LegendNANA
09:00 -17.1 -18.4 90 13 2   101.06   -19 LegendNANA
10:00 -18.8 -20.3 88 12 8   101.09   -25 LegendNANA
11:00 -18.3 -19.8 88 7 7   101.11   -24 LegendNANA
12:00 -19.3 -20.9 87 5 7   101.12   -25 LegendNANA
13:00 -19.9 -21.5 87 4 8   101.15   -26 LegendNANA
14:00 -20.3 -22.0 86 3 8   101.17   -27 LegendNANA
15:00 -20.3 -21.9 87 3 10   101.21   -28 LegendNANA
16:00 -19.3 -20.8 88 6 5   101.23   -23 LegendNANA
17:00 -20.5 -22.2 86 9 5   101.25   -25 LegendNANA
18:00 -22.8 -24.8 84 6 4   101.26   -27 LegendNANA
19:00 -22.7 -24.4 86 5 8   101.29   -29 LegendNANA
20:00 -23.4 -25.6 82 13 4   101.29   -27 LegendNANA
21:00 -25.3 -27.5 82 11 5   101.30   -30 LegendNANA
22:00 -25.0 -27.2 82 11 5   101.32   -30 LegendNANA
23:00 -26.0 -28.2 81 7 5   101.33   -31 LegendNANA

Notes on Data Quality.

Legend

  • E = Estimated
  • M = Missing
  • NA = Not Available
  • ‡ = Partner data that is not subject to review by the National Climate Archives
Date modified: